Time,TemperatureF,DewpointF,PressureIn,WindDirection,WindDirectionDegrees,WindSpeedMPH,WindSpeedGustMPH,Humidity,HourlyPrecipIn,Conditions,Clouds,dailyrainin,SoftwareType,DateUTC
2013-05-27 00:05:00,53.2,38.4,30.09,East,84,0.0,5.0,57,0.00,,,0.01,Wunderground v.1.13,2013-05-27 05:05:00,
2013-05-27 00:15:00,53.1,38.7,30.09,East,84,0.0,5.0,58,0.00,,,0.01,Wunderground v.1.13,2013-05-27 05:15:00,
2013-05-27 00:25:00,53.1,38.7,30.08,East,82,0.0,5.0,58,0.00,,,0.01,Wunderground v.1.13,2013-05-27 05:25:00,
2013-05-27 00:30:00,53.1,38.7,30.08,East,82,0.0,5.0,58,0.00,,,0.01,Wunderground v.1.13,2013-05-27 05:30:00,
2013-05-27 00:40:00,53.1,39.6,30.07,East,82,0.0,4.0,60,0.00,,,0.01,Wunderground v.1.13,2013-05-27 05:40:00,
2013-05-27 00:50:00,52.8,39.3,30.07,East,82,0.0,4.0,60,0.00,,,0.01,Wunderground v.1.13,2013-05-27 05:50:00,
2013-05-27 00:55:00,52.8,39.3,30.06,East,82,0.0,4.0,60,0.00,,,0.01,Wunderground v.1.13,2013-05-27 05:55:00,
2013-05-27 01:05:00,52.8,38.9,30.06,East,82,0.0,4.0,59,0.00,,,0.01,Wunderground v.1.13,2013-05-27 06:05:00,
2013-05-27 01:15:00,52.9,39.4,30.06,ENE,57,0.0,4.0,60,0.00,,,0.01,Wunderground v.1.13,2013-05-27 06:15:00,
2013-05-27 01:25:00,52.8,39.7,30.05,ENE,57,0.0,4.0,61,0.00,,,0.01,Wunderground v.1.13,2013-05-27 06:25:00,
2013-05-27 01:30:00,52.8,39.7,30.05,ENE,57,0.0,4.0,61,0.00,,,0.01,Wunderground v.1.13,2013-05-27 06:30:00,
2013-05-27 01:40:00,52.8,39.7,30.05,ENE,57,0.0,1.0,61,0.00,,,0.01,Wunderground v.1.13,2013-05-27 06:40:00,
2013-05-27 01:45:00,52.8,39.7,30.05,ENE,57,0.0,1.0,61,0.00,,,0.01,Wunderground v.1.13,2013-05-27 06:45:00,
2013-05-27 01:55:00,52.9,39.4,30.04,ENE,57,0.0,1.0,60,0.00,,,0.01,Wunderground v.1.13,2013-05-27 06:55:00,
2013-05-27 02:05:00,53.1,40.0,30.04,ENE,57,0.0,1.0,61,0.00,,,0.01,Wunderground v.1.13,2013-05-27 07:05:00,
2013-05-27 02:15:00,53.2,39.7,30.03,ENE,57,0.0,1.0,60,0.00,,,0.01,Wunderground v.1.13,2013-05-27 07:15:00,
2013-05-27 02:25:00,53.1,40.0,30.03,ENE,57,0.0,1.0,61,0.00,,,0.01,Wunderground v.1.13,2013-05-27 07:25:00,
2013-05-27 02:35:00,53.2,40.1,30.03,ENE,57,0.0,1.0,61,0.00,,,0.01,Wunderground v.1.13,2013-05-27 07:35:00,
2013-05-27 02:45:00,53.2,40.1,30.02,ENE,57,0.0,1.0,61,0.00,,,0.01,Wunderground v.1.13,2013-05-27 07:45:00,
2013-05-27 02:50:00,53.3,40.2,30.02,ENE,57,0.0,1.0,61,0.00,,,0.01,Wunderground v.1.13,2013-05-27 07:50:00,
2013-05-27 02:55:00,53.5,40.4,30.02,ENE,57,0.0,1.0,61,0.00,,,0.01,Wunderground v.1.13,2013-05-27 07:55:00,
2013-05-27 03:00:00,53.5,40.4,30.02,ENE,57,0.0,1.0,61,0.00,,,0.01,Wunderground v.1.13,2013-05-27 08:00:00,
2013-05-27 03:05:00,53.5,40.8,30.02,ENE,57,0.0,2.0,62,0.00,,,0.01,Wunderground v.1.13,2013-05-27 08:05:00,
2013-05-27 03:15:00,53.5,40.4,30.00,ENE,63,0.0,2.0,61,0.00,,,0.01,Wunderground v.1.13,2013-05-27 08:15:00,
2013-05-27 03:25:00,53.5,40.8,29.99,ENE,63,0.0,2.0,62,0.00,,,0.01,Wunderground v.1.13,2013-05-27 08:25:00,
2013-05-27 03:35:00,53.3,40.6,29.99,ENE,63,0.0,1.0,62,0.00,,,0.01,Wunderground v.1.13,2013-05-27 08:35:00,
2013-05-27 03:45:00,53.3,40.6,29.99,ENE,63,0.0,1.0,62,0.00,,,0.01,Wunderground v.1.13,2013-05-27 08:45:00,
2013-05-27 03:50:00,53.3,40.6,29.99,ENE,63,0.0,1.0,62,0.00,,,0.01,Wunderground v.1.13,2013-05-27 08:50:00,
2013-05-27 03:55:00,53.3,40.6,29.98,ESE,105,0.0,1.0,62,0.00,,,0.01,Wunderground v.1.13,2013-05-27 08:55:00,
2013-05-27 04:00:00,53.3,40.6,29.98,ESE,105,0.0,1.0,62,0.00,,,0.01,Wunderground v.1.13,2013-05-27 09:00:00,
2013-05-27 04:05:00,53.5,40.8,29.98,ESE,103,0.0,2.0,62,0.00,,,0.01,Wunderground v.1.13,2013-05-27 09:05:00,
2013-05-27 04:15:00,53.6,40.9,29.98,East,95,0.0,2.0,62,0.00,,,0.01,Wunderground v.1.13,2013-05-27 09:15:00,
2013-05-27 04:20:00,53.6,40.9,29.98,East,82,0.0,7.0,62,0.00,,,0.01,Wunderground v.1.13,2013-05-27 09:20:00,
2013-05-27 04:25:00,53.8,41.1,29.99,East,82,0.0,7.0,62,0.00,,,0.01,Wunderground v.1.13,2013-05-27 09:25:00,
2013-05-27 04:35:00,53.8,41.1,29.99,East,82,0.0,7.0,62,0.00,,,0.01,Wunderground v.1.13,2013-05-27 09:35:00,
2013-05-27 04:40:00,53.8,41.5,30.00,East,97,0.0,7.0,63,0.00,,,0.01,Wunderground v.1.13,2013-05-27 09:40:00,
2013-05-27 04:50:00,53.8,41.9,30.00,East,98,0.0,7.0,64,0.00,,,0.01,Wunderground v.1.13,2013-05-27 09:50:00,
2013-05-27 04:55:00,53.8,41.9,29.99,ESE,107,0.0,7.0,64,0.00,,,0.01,Wunderground v.1.13,2013-05-27 09:55:00,
2013-05-27 05:00:00,53.8,42.3,29.99,ESE,107,0.0,7.0,65,0.00,,,0.01,Wunderground v.1.13,2013-05-27 10:00:00,
2013-05-27 05:05:00,53.6,42.5,29.99,ESE,107,0.0,6.0,66,0.00,,,0.02,Wunderground v.1.13,2013-05-27 10:05:00,
2013-05-27 05:15:00,53.3,43.4,29.99,ESE,107,0.0,6.0,69,0.00,,,0.02,Wunderground v.1.13,2013-05-27 10:15:00,
2013-05-27 05:20:00,53.2,43.7,29.99,ESE,107,0.0,6.0,70,0.00,,,0.02,Wunderground v.1.13,2013-05-27 10:20:00,
2013-05-27 05:30:00,53.3,43.8,29.97,East,99,0.0,6.0,70,0.00,,,0.02,Wunderground v.1.13,2013-05-27 10:30:00,
2013-05-27 05:35:00,53.3,43.8,29.97,East,99,0.0,5.0,70,0.00,,,0.02,Wunderground v.1.13,2013-05-27 10:35:00,
2013-05-27 05:40:00,53.5,44.0,29.98,East,100,0.0,5.0,70,0.00,,,0.02,Wunderground v.1.13,2013-05-27 10:40:00,
2013-05-27 05:50:00,53.9,44.7,29.98,East,95,0.0,5.0,71,0.00,,,0.02,Wunderground v.1.13,2013-05-27 10:50:00,
2013-05-27 05:55:00,54.1,44.9,29.99,East,91,0.0,5.0,71,0.00,,,0.02,Wunderground v.1.13,2013-05-27 10:55:00,
2013-05-27 06:00:00,54.2,45.0,29.99,East,91,0.0,5.0,71,0.00,,,0.02,Wunderground v.1.13,2013-05-27 11:00:00,
2013-05-27 06:05:00,54.2,45.4,29.99,East,79,0.0,1.0,72,0.00,,,0.02,Wunderground v.1.13,2013-05-27 11:05:00,
2013-05-27 06:15:00,54.1,45.6,29.99,ESE,122,0.0,5.0,73,0.00,,,0.00,Wunderground v.1.13,2013-05-27 11:15:00,
2013-05-27 06:20:00,54.1,46.0,29.99,ESE,113,0.0,5.0,74,0.00,,,0.00,Wunderground v.1.13,2013-05-27 11:20:00,
2013-05-27 06:30:00,53.9,45.8,29.99,East,100,0.0,5.0,74,0.00,,,0.00,Wunderground v.1.13,2013-05-27 11:30:00,
2013-05-27 06:35:00,53.8,45.7,29.99,East,95,1.0,1.0,74,0.00,,,0.00,Wunderground v.1.13,2013-05-27 11:35:00,
2013-05-27 06:45:00,53.5,46.1,29.99,ESE,105,1.0,1.0,76,0.00,,,0.00,Wunderground v.1.13,2013-05-27 11:45:00,
2013-05-27 06:50:00,53.3,46.6,29.99,ESE,104,1.0,1.0,78,0.00,,,0.00,Wunderground v.1.13,2013-05-27 11:50:00,
2013-05-27 06:55:00,53.1,46.8,29.99,East,89,1.0,1.0,79,0.00,,,0.00,Wunderground v.1.13,2013-05-27 11:55:00,
2013-05-27 07:00:00,52.8,46.8,29.99,ESE,107,0.0,5.0,80,0.00,,,0.00,Wunderground v.1.13,2013-05-27 12:00:00,
2013-05-27 07:05:00,52.5,47.2,29.99,ESE,109,0.0,6.0,82,0.00,,,0.00,Wunderground v.1.13,2013-05-27 12:05:00,
2013-05-27 07:15:00,52.0,47.3,29.99,East,96,0.0,6.0,84,0.00,,,0.00,Wunderground v.1.13,2013-05-27 12:15:00,
2013-05-27 07:25:00,51.6,47.5,30.00,East,100,1.0,6.0,86,0.00,,,0.01,Wunderground v.1.13,2013-05-27 12:25:00,
2013-05-27 07:35:00,51.3,47.9,30.00,ESE,116,1.0,1.0,88,0.00,,,0.01,Wunderground v.1.13,2013-05-27 12:35:00,
2013-05-27 07:45:00,51.1,48.3,30.00,ENE,76,1.0,1.0,90,0.00,,,0.02,Wunderground v.1.13,2013-05-27 12:45:00,
2013-05-27 07:55:00,51.4,49.2,30.00,ESE,103,1.0,8.0,92,0.00,,,0.02,Wunderground v.1.13,2013-05-27 12:55:00,
2013-05-27 08:00:00,51.6,49.4,30.00,East,79,1.0,1.0,92,0.00,,,0.02,Wunderground v.1.13,2013-05-27 13:00:00,
2013-05-27 08:05:00,51.6,49.4,30.00,ESE,107,1.0,8.0,92,0.00,,,0.02,Wunderground v.1.13,2013-05-27 13:05:00,
2013-05-27 08:15:00,51.7,49.7,29.99,East,97,1.0,8.0,93,0.00,,,0.02,Wunderground v.1.13,2013-05-27 13:15:00,
2013-05-27 08:25:00,51.6,49.6,29.99,East,93,1.0,8.0,93,0.00,,,0.02,Wunderground v.1.13,2013-05-27 13:25:00,
2013-05-27 08:30:00,51.6,49.6,29.99,ESE,116,2.0,8.0,93,0.00,,,0.02,Wunderground v.1.13,2013-05-27 13:30:00,
2013-05-27 08:40:00,51.7,50.0,29.99,East,99,2.0,2.0,94,0.00,,,0.03,Wunderground v.1.13,2013-05-27 13:40:00,
2013-05-27 08:45:00,51.7,50.0,29.99,ESE,121,2.0,9.0,94,0.00,,,0.03,Wunderground v.1.13,2013-05-27 13:45:00,
2013-05-27 08:55:00,51.7,50.0,29.99,ESE,106,2.0,9.0,94,0.00,,,0.03,Wunderground v.1.13,2013-05-27 13:55:00,
2013-05-27 09:00:00,51.7,50.0,29.99,SE,139,2.0,9.0,94,0.00,,,0.03,Wunderground v.1.13,2013-05-27 14:00:00,
2013-05-27 09:05:00,51.7,50.3,29.99,East,99,2.0,9.0,95,0.00,,,0.03,Wunderground v.1.13,2013-05-27 14:05:00,
2013-05-27 09:15:00,51.9,50.5,29.98,ESE,106,3.0,9.0,95,0.00,,,0.03,Wunderground v.1.13,2013-05-27 14:15:00,
2013-05-27 09:20:00,51.9,50.5,29.98,East,97,3.0,9.0,95,0.00,,,0.03,Wunderground v.1.13,2013-05-27 14:20:00,
2013-05-27 09:25:00,52.0,50.6,29.97,ESE,114,2.0,2.0,95,0.00,,,0.03,Wunderground v.1.13,2013-05-27 14:25:00,
2013-05-27 09:35:00,52.3,50.9,29.97,East,90,2.0,2.0,95,0.00,,,0.03,Wunderground v.1.13,2013-05-27 14:35:00,
2013-05-27 09:40:00,52.5,51.1,29.96,ESE,114,3.0,12.0,95,0.00,,,0.04,Wunderground v.1.13,2013-05-27 14:40:00,
2013-05-27 09:50:00,52.5,51.1,29.96,ESE,109,5.0,5.0,95,0.00,,,0.04,Wunderground v.1.13,2013-05-27 14:50:00,
2013-05-27 10:00:00,52.5,51.1,29.95,ESE,103,4.0,12.0,95,0.00,,,0.04,Wunderground v.1.13,2013-05-27 15:00:00,
2013-05-27 10:05:00,52.3,50.6,29.95,ESE,105,5.0,14.0,94,0.00,,,0.04,Wunderground v.1.13,2013-05-27 15:05:00,
2013-05-27 10:15:00,52.5,50.8,29.95,ESE,104,4.0,14.0,94,0.00,,,0.04,Wunderground v.1.13,2013-05-27 15:15:00,
2013-05-27 10:20:00,52.6,50.9,29.95,ESE,118,3.0,14.0,94,0.00,,,0.04,Wunderground v.1.13,2013-05-27 15:20:00,
2013-05-27 10:30:00,52.8,50.8,29.95,East,94,5.0,5.0,93,0.00,,,0.04,Wunderground v.1.13,2013-05-27 15:30:00,
2013-05-27 10:35:00,52.8,50.8,29.95,ESE,109,4.0,16.0,93,0.00,,,0.04,Wunderground v.1.13,2013-05-27 15:35:00,
2013-05-27 10:45:00,52.6,50.6,29.94,East,98,4.0,4.0,93,0.00,,,0.04,Wunderground v.1.13,2013-05-27 15:45:00,
2013-05-27 10:55:00,52.8,50.8,29.94,ESE,110,2.0,2.0,93,0.00,,,0.04,Wunderground v.1.13,2013-05-27 15:55:00,
2013-05-27 11:05:00,52.8,50.5,29.94,ESE,123,2.0,15.0,92,0.00,,,0.04,Wunderground v.1.13,2013-05-27 16:05:00,
2013-05-27 11:15:00,52.8,50.8,29.95,SE,124,5.0,5.0,93,0.00,,,0.04,Wunderground v.1.13,2013-05-27 16:15:00,
2013-05-27 11:25:00,52.8,50.8,29.94,ESE,116,2.0,2.0,93,0.00,,,0.04,Wunderground v.1.13,2013-05-27 16:25:00,
2013-05-27 11:30:00,52.8,50.5,29.94,East,88,3.0,3.0,92,0.00,,,0.04,Wunderground v.1.13,2013-05-27 16:30:00,
2013-05-27 11:40:00,52.9,50.6,29.95,East,96,3.0,11.0,92,0.00,,,0.04,Wunderground v.1.13,2013-05-27 16:40:00,
2013-05-27 11:45:00,52.8,50.5,29.95,ESE,110,3.0,11.0,92,0.00,,,0.04,Wunderground v.1.13,2013-05-27 16:45:00,
2013-05-27 11:50:00,52.8,50.5,29.95,ESE,111,3.0,3.0,92,0.00,,,0.04,Wunderground v.1.13,2013-05-27 16:50:00,
2013-05-27 11:55:00,52.9,50.6,29.96,East,100,2.0,2.0,92,0.00,,,0.04,Wunderground v.1.13,2013-05-27 16:55:00,
2013-05-27 12:00:00,52.8,50.5,29.96,East,90,2.0,11.0,92,0.00,,,0.04,Wunderground v.1.13,2013-05-27 17:00:00,
2013-05-27 12:05:00,52.8,50.5,29.96,ESE,120,2.0,13.0,92,0.00,,,0.04,Wunderground v.1.13,2013-05-27 17:05:00,
2013-05-27 12:15:00,52.9,50.6,29.96,East,101,3.0,13.0,92,0.00,,,0.04,Wunderground v.1.13,2013-05-27 17:15:00,
2013-05-27 12:25:00,53.1,50.8,29.95,East,86,3.0,13.0,92,0.00,,,0.04,Wunderground v.1.13,2013-05-27 17:25:00,
2013-05-27 12:35:00,53.1,50.8,29.95,East,100,3.0,12.0,92,0.00,,,0.04,Wunderground v.1.13,2013-05-27 17:35:00,
2013-05-27 12:40:00,53.2,50.9,29.95,SE,128,3.0,3.0,92,0.00,,,0.04,Wunderground v.1.13,2013-05-27 17:40:00,
2013-05-27 12:50:00,53.5,51.2,29.95,East,97,3.0,3.0,92,0.00,,,0.04,Wunderground v.1.13,2013-05-27 17:50:00,
2013-05-27 12:55:00,53.5,51.2,29.94,ESE,103,2.0,12.0,92,0.00,,,0.04,Wunderground v.1.13,2013-05-27 17:55:00,
2013-05-27 13:00:00,53.6,51.0,29.94,ESE,103,2.0,2.0,91,0.00,,,0.04,Wunderground v.1.13,2013-05-27 18:00:00,
2013-05-27 13:05:00,53.6,51.0,29.94,SSE,156,2.0,13.0,91,0.00,,,0.04,Wunderground v.1.13,2013-05-27 18:05:00,
2013-05-27 13:15:00,53.9,51.3,29.94,East,93,3.0,3.0,91,0.00,,,0.04,Wunderground v.1.13,2013-05-27 18:15:00,
2013-05-27 13:20:00,54.1,51.5,29.94,East,96,1.0,1.0,91,0.00,,,0.04,Wunderground v.1.13,2013-05-27 18:20:00,
2013-05-27 13:25:00,54.1,51.5,29.93,ESE,105,2.0,2.0,91,0.00,,,0.04,Wunderground v.1.13,2013-05-27 18:25:00,
2013-05-27 13:35:00,54.2,51.3,29.93,East,85,2.0,2.0,90,0.00,,,0.04,Wunderground v.1.13,2013-05-27 18:35:00,
2013-05-27 13:45:00,53.9,50.7,29.94,East,98,4.0,4.0,89,0.00,,,0.04,Wunderground v.1.13,2013-05-27 18:45:00,
2013-05-27 13:55:00,54.2,51.0,29.93,ESE,107,4.0,11.0,89,0.00,,,0.04,Wunderground v.1.13,2013-05-27 18:55:00,
2013-05-27 14:05:00,54.7,51.2,29.93,East,97,4.0,4.0,88,0.00,,,0.04,Wunderground v.1.13,2013-05-27 19:05:00,
2013-05-27 14:15:00,54.7,50.9,29.91,SE,143,4.0,4.0,87,0.00,,,0.04,Wunderground v.1.13,2013-05-27 19:15:00,
2013-05-27 14:25:00,54.8,51.3,29.90,ESE,106,5.0,5.0,88,0.00,,,0.04,Wunderground v.1.13,2013-05-27 19:25:00,
2013-05-27 14:35:00,54.8,51.0,29.90,East,98,3.0,13.0,87,0.00,,,0.04,Wunderground v.1.13,2013-05-27 19:35:00,
2013-05-27 14:40:00,54.5,50.7,29.90,East,91,3.0,3.0,87,0.00,,,0.04,Wunderground v.1.13,2013-05-27 19:40:00,
2013-05-27 14:45:00,54.2,50.7,29.90,ESE,107,3.0,13.0,88,0.00,,,0.04,Wunderground v.1.13,2013-05-27 19:45:00,
2013-05-27 14:55:00,53.9,50.4,29.90,ESE,123,3.0,3.0,88,0.00,,,0.04,Wunderground v.1.13,2013-05-27 19:55:00,
2013-05-27 15:00:00,53.8,50.6,29.90,East,94,3.0,3.0,89,0.00,,,0.04,Wunderground v.1.13,2013-05-27 20:00:00,
2013-05-27 15:05:00,53.6,50.4,29.90,ESE,105,2.0,12.0,89,0.00,,,0.04,Wunderground v.1.13,2013-05-27 20:05:00,
2013-05-27 15:15:00,53.8,50.9,29.90,ESE,106,2.0,12.0,90,0.00,,,0.04,Wunderground v.1.13,2013-05-27 20:15:00,
2013-05-27 15:25:00,53.5,50.6,29.90,East,99,4.0,12.0,90,0.00,,,0.04,Wunderground v.1.13,2013-05-27 20:25:00,
2013-05-27 15:35:00,53.3,50.4,29.90,ESE,103,2.0,11.0,90,0.00,,,0.04,Wunderground v.1.13,2013-05-27 20:35:00,
2013-05-27 15:40:00,53.3,50.4,29.90,ESE,103,2.0,2.0,90,0.00,,,0.04,Wunderground v.1.13,2013-05-27 20:40:00,
2013-05-27 15:50:00,53.3,50.7,29.90,East,97,2.0,2.0,91,0.00,,,0.04,Wunderground v.1.13,2013-05-27 20:50:00,
2013-05-27 16:00:00,53.2,50.6,29.89,East,101,2.0,11.0,91,0.00,,,0.04,Wunderground v.1.13,2013-05-27 21:00:00,
2013-05-27 16:05:00,53.2,50.6,29.89,ESE,106,1.0,1.0,91,0.00,,,0.04,Wunderground v.1.13,2013-05-27 21:05:00,
2013-05-27 16:15:00,53.1,50.5,29.88,East,93,2.0,11.0,91,0.00,,,0.04,Wunderground v.1.13,2013-05-27 21:15:00,
2013-05-27 16:20:00,52.9,50.3,29.88,SE,128,2.0,2.0,91,0.00,,,0.04,Wunderground v.1.13,2013-05-27 21:20:00,
2013-05-27 16:25:00,52.8,50.5,29.87,East,98,2.0,2.0,92,0.00,,,0.04,Wunderground v.1.13,2013-05-27 21:25:00,
2013-05-27 16:35:00,52.6,50.3,29.87,ESE,107,1.0,10.0,92,0.00,,,0.04,Wunderground v.1.13,2013-05-27 21:35:00,
2013-05-27 16:45:00,52.2,49.9,29.88,ESE,104,1.0,1.0,92,0.00,,,0.04,Wunderground v.1.13,2013-05-27 21:45:00,
2013-05-27 16:55:00,51.9,49.6,29.88,East,91,1.0,1.0,92,0.00,,,0.04,Wunderground v.1.13,2013-05-27 21:55:00,
2013-05-27 17:05:00,51.7,49.5,29.88,East,101,1.0,1.0,92,0.00,,,0.04,Wunderground v.1.13,2013-05-27 22:05:00,
2013-05-27 17:15:00,51.6,49.6,29.88,ENE,73,0.0,12.0,93,0.00,,,0.04,Wunderground v.1.13,2013-05-27 22:15:00,
2013-05-27 17:20:00,51.4,49.4,29.88,East,88,1.0,1.0,93,0.00,,,0.04,Wunderground v.1.13,2013-05-27 22:20:00,
2013-05-27 17:25:00,51.4,49.4,29.88,East,89,1.0,1.0,93,0.00,,,0.04,Wunderground v.1.13,2013-05-27 22:25:00,
2013-05-27 17:30:00,51.4,49.4,29.88,ESE,103,1.0,12.0,93,0.00,,,0.04,Wunderground v.1.13,2013-05-27 22:30:00,
2013-05-27 17:35:00,51.4,49.4,29.88,East,99,1.0,1.0,93,0.00,,,0.04,Wunderground v.1.13,2013-05-27 22:35:00,
2013-05-27 17:40:00,51.3,49.3,29.88,ESE,105,1.0,1.0,93,0.00,,,0.04,Wunderground v.1.13,2013-05-27 22:40:00,
2013-05-27 17:45:00,51.3,49.3,29.88,East,96,2.0,2.0,93,0.00,,,0.04,Wunderground v.1.13,2013-05-27 22:45:00,
2013-05-27 17:55:00,51.1,49.1,29.87,East,89,0.0,9.0,93,0.00,,,0.04,Wunderground v.1.13,2013-05-27 22:55:00,
2013-05-27 18:05:00,51.0,49.3,29.87,ENE,71,1.0,1.0,94,0.00,,,0.04,Wunderground v.1.13,2013-05-27 23:05:00,
2013-05-27 18:15:00,50.8,49.1,29.87,ENE,78,1.0,1.0,94,0.00,,,0.04,Wunderground v.1.13,2013-05-27 23:15:00,
2013-05-27 18:20:00,50.8,49.1,29.87,ESE,103,1.0,9.0,94,0.00,,,0.04,Wunderground v.1.13,2013-05-27 23:20:00,
2013-05-27 18:30:00,50.7,49.0,29.87,ENE,74,1.0,1.0,94,0.00,,,0.04,Wunderground v.1.13,2013-05-27 23:30:00,
2013-05-27 18:35:00,50.7,49.0,29.87,East,85,1.0,1.0,94,0.00,,,0.04,Wunderground v.1.13,2013-05-27 23:35:00,
2013-05-27 18:45:00,50.4,48.7,29.86,ESE,105,1.0,8.0,94,0.00,,,0.04,Wunderground v.1.13,2013-05-27 23:45:00,
2013-05-27 18:55:00,50.4,49.0,29.86,East,96,1.0,1.0,95,0.00,,,0.04,Wunderground v.1.13,2013-05-27 23:55:00,
2013-05-27 19:05:00,50.4,49.0,29.86,ESE,104,0.0,7.0,95,0.00,,,0.04,Wunderground v.1.13,2013-05-28 00:05:00,
2013-05-27 19:15:00,50.2,48.8,29.86,ESE,102,2.0,7.0,95,0.00,,,0.04,Wunderground v.1.13,2013-05-28 00:15:00,
2013-05-27 19:20:00,50.2,48.8,29.86,East,98,1.0,1.0,95,0.00,,,0.04,Wunderground v.1.13,2013-05-28 00:20:00,
2013-05-27 19:25:00,50.2,48.8,29.85,East,96,1.0,1.0,95,0.00,,,0.04,Wunderground v.1.13,2013-05-28 00:25:00,
2013-05-27 19:35:00,50.2,48.8,29.85,East,94,1.0,10.0,95,0.00,,,0.04,Wunderground v.1.13,2013-05-28 00:35:00,
2013-05-27 19:40:00,50.2,48.8,29.85,East,89,1.0,1.0,95,0.00,,,0.04,Wunderground v.1.13,2013-05-28 00:40:00,
2013-05-27 19:50:00,50.2,48.8,29.85,East,94,0.0,10.0,95,0.00,,,0.04,Wunderground v.1.13,2013-05-28 00:50:00,
2013-05-27 19:55:00,50.2,48.8,29.85,ESE,118,0.0,10.0,95,0.00,,,0.04,Wunderground v.1.13,2013-05-28 00:55:00,
2013-05-27 20:05:00,50.1,49.0,29.85,ESE,102,1.0,1.0,96,0.00,,,0.04,Wunderground v.1.13,2013-05-28 01:05:00,
2013-05-27 20:15:00,50.1,49.0,29.85,ESE,103,1.0,1.0,96,0.00,,,0.04,Wunderground v.1.13,2013-05-28 01:15:00,
2013-05-27 20:20:00,50.1,49.0,29.85,East,96,1.0,9.0,96,0.00,,,0.04,Wunderground v.1.13,2013-05-28 01:20:00,
2013-05-27 20:25:00,50.1,49.0,29.85,ENE,69,2.0,2.0,96,0.00,,,0.04,Wunderground v.1.13,2013-05-28 01:25:00,
2013-05-27 20:30:00,50.1,49.0,29.85,ENE,71,1.0,1.0,96,0.00,,,0.04,Wunderground v.1.13,2013-05-28 01:30:00,
2013-05-27 20:40:00,50.1,49.0,29.84,East,97,1.0,1.0,96,0.00,,,0.04,Wunderground v.1.13,2013-05-28 01:40:00,
2013-05-27 20:45:00,50.1,49.0,29.84,East,100,1.0,1.0,96,0.00,,,0.04,Wunderground v.1.13,2013-05-28 01:45:00,
2013-05-27 20:55:00,50.1,49.0,29.84,East,96,0.0,11.0,96,0.00,,,0.04,Wunderground v.1.13,2013-05-28 01:55:00,
2013-05-27 21:00:00,50.1,49.0,29.84,East,88,0.0,11.0,96,0.00,,,0.04,Wunderground v.1.13,2013-05-28 02:00:00,
2013-05-27 21:05:00,50.1,49.0,29.84,East,87,0.0,8.0,96,0.00,,,0.04,Wunderground v.1.13,2013-05-28 02:05:00,
2013-05-27 21:15:00,50.1,49.0,29.82,ESE,109,0.0,8.0,96,0.00,,,0.04,Wunderground v.1.13,2013-05-28 02:15:00,
2013-05-27 21:20:00,50.1,49.0,29.82,ESE,111,1.0,8.0,96,0.00,,,0.04,Wunderground v.1.13,2013-05-28 02:20:00,
2013-05-27 21:30:00,50.1,49.0,29.84,ENE,78,1.0,1.0,96,0.00,,,0.04,Wunderground v.1.13,2013-05-28 02:30:00,
2013-05-27 21:40:00,50.1,49.0,29.84,East,98,0.0,8.0,96,0.00,,,0.04,Wunderground v.1.13,2013-05-28 02:40:00,
2013-05-27 21:50:00,50.1,49.0,29.84,East,100,0.0,8.0,96,0.00,,,0.04,Wunderground v.1.13,2013-05-28 02:50:00,
2013-05-27 21:55:00,50.1,49.0,29.84,ESE,105,0.0,8.0,96,0.00,,,0.04,Wunderground v.1.13,2013-05-28 02:55:00,
2013-05-27 22:05:00,50.1,49.0,29.84,East,101,0.0,9.0,96,0.00,,,0.04,Wunderground v.1.13,2013-05-28 03:05:00,
2013-05-27 22:15:00,50.2,49.1,29.84,ESE,106,0.0,9.0,96,0.00,,,0.04,Wunderground v.1.13,2013-05-28 03:15:00,
2013-05-27 22:25:00,50.4,49.3,29.84,ESE,120,0.0,9.0,96,0.00,,,0.04,Wunderground v.1.13,2013-05-28 03:25:00,
2013-05-27 22:30:00,50.4,49.3,29.84,ESE,106,0.0,9.0,96,0.00,,,0.04,Wunderground v.1.13,2013-05-28 03:30:00,
2013-05-27 22:40:00,50.5,49.4,29.85,SE,128,0.0,9.0,96,0.00,,,0.04,Wunderground v.1.13,2013-05-28 03:40:00,
2013-05-27 22:50:00,50.5,49.4,29.85,East,100,0.0,9.0,96,0.00,,,0.04,Wunderground v.1.13,2013-05-28 03:50:00,
2013-05-27 23:00:00,50.7,49.6,29.85,East,98,0.0,9.0,96,0.00,,,0.04,Wunderground v.1.13,2013-05-28 04:00:00,
2013-05-27 23:05:00,50.7,49.6,29.85,East,101,0.0,7.0,96,0.00,,,0.04,Wunderground v.1.13,2013-05-28 04:05:00,
2013-05-27 23:10:00,50.7,49.6,29.84,East,101,0.0,7.0,96,0.00,,,0.04,Wunderground v.1.13,2013-05-28 04:10:00,
2013-05-27 23:15:00,50.7,49.6,29.84,ESE,103,1.0,1.0,96,0.00,,,0.04,Wunderground v.1.13,2013-05-28 04:15:00,
2013-05-27 23:20:00,50.7,49.6,29.84,East,101,1.0,1.0,96,0.00,,,0.04,Wunderground v.1.13,2013-05-28 04:20:00,
2013-05-27 23:25:00,50.7,49.6,29.84,East,101,0.0,7.0,96,0.00,,,0.04,Wunderground v.1.13,2013-05-28 04:25:00,
2013-05-27 23:30:00,50.7,49.6,29.84,East,101,0.0,7.0,96,0.00,,,0.04,Wunderground v.1.13,2013-05-28 04:30:00,
2013-05-27 23:40:00,50.7,49.6,29.84,East,101,0.0,6.0,96,0.00,,,0.04,Wunderground v.1.13,2013-05-28 04:40:00,
2013-05-27 23:45:00,50.7,49.6,29.84,East,101,0.0,6.0,96,0.00,,,0.04,Wunderground v.1.13,2013-05-28 04:45:00,
2013-05-27 23:55:00,50.5,49.4,29.82,ESE,105,0.0,6.0,96,0.00,,,0.04,Wunderground v.1.13,2013-05-28 04:55:00,